Wind_Speed
7 6 5 3 3 5 5 4 4 6 6 7 6 5 4 3 4 5 5 6 9 10 12 13 13 14 15 16 17 18 18 19 19 20 21 21 21 22 21 21 21 20 20 21 22 23 24 24 25
6 5 4 3 2 2 4 3 3 3 4 5 6 7 6 5 5 6 8 10 11 12 13 13 12 13 13 14 16 17 17 17 18 19 20 20 19 19 18 19 20 22 23 24 25 24 24 26 27
8 7 5 3 2 1 2 2 3 4 4 4 5 7 7 7 7 8 10 11 11 12 12 12 12 14 15 16 16 17 18 19 19 19 19 17 16 16 18 19 22 23 24 24 26 28 27 25 26
9 8 7 5 4 3 3 4 4 2 3 4 4 4 6 7 7 8 9 11 11 12 13 13 13 14 16 17 17 17 18 18 18 17 17 15 16 17 19 22 22 23 24 26 28 27 27 26 29
10 9 8 7 7 6 4 5 5 4 3 3 2 1 3 7 8 9 11 12 12 13 13 14 15 16 16 17 18 17 18 19 17 15 15 16 18 20 21 22 22 24 26 30 31 31 29 32 36
12 11 9 9 9 7 6 6 5 4 2 2 1 2 5 9 11 14 15 15 15 14 14 14 16 17 18 18 19 19 19 18 16 15 16 17 19 21 21 21 24 26 28 30 29 32 37 39 41
14 12 11 10 10 9 6 5 6 5 5 5 4 4 6 9 13 16 17 18 18 18 16 16 17 18 19 20 20 20 20 18 17 16 17 19 21 21 22 23 24 28 28 30 33 38 42 45 45
16 14 12 12 12 10 8 8 8 7 7 6 7 4 5 9 12 14 15 17 17 19 19 19 19 19 20 21 21 21 21 19 18 18 19 20 22 23 24 26 26 29 30 33 38 42 47 49 45
19 14 14 14 14 11 10 10 10 10 9 8 7 4 4 6 10 13 15 17 18 18 19 19 19 20 20 21 21 22 21 19 19 20 20 22 23 25 26 27 29 31 35 40 44 49 51 51 45
20 16 19 17 17 13 13 13 14 13 12 11 9 6 2 4 7 10 13 15 16 17 19 20 21 22 21 21 22 22 22 20 20 21 23 24 25 27 30 31 34 37 43 46 49 56 55 52 47
22 19 22 20 19 17 16 15 16 15 15 14 11 8 3 1 4 8 11 14 15 18 20 22 22 23 22 22 23 24 22 21 21 22 24 26 28 29 32 36 38 40 46 50 54 59 58 51 51
26 24 25 23 21 19 18 18 16 17 16 15 12 9 5 3 5 6 10 14 15 16 19 20 23 25 24 24 24 24 24 23 23 24 26 27 29 32 35 39 42 46 49 53 55 59 55 55 53
30 29 28 24 24 22 21 22 19 20 17 17 14 11 8 6 7 8 12 14 15 17 20 23 25 27 27 26 25 25 25 24 24 24 27 29 30 33 35 39 42 45 48 52 56 57 57 57 58
33 32 31 28 28 25 25 25 21 25 21 20 17 14 11 8 9 11 13 15 15 17 20 23 28 30 28 26 26 26 26 25 25 25 27 29 31 33 35 38 42 45 48 51 56 56 59 61 58
38 36 34 32 30 28 28 27 25 27 23 24 20 16 14 12 11 13 16 16 16 17 19 21 29 33 31 28 28 27 26 26 26 26 27 29 32 33 35 38 42 46 47 54 54 57 60 61 57
42 41 38 34 34 32 32 25 32 29 27 26 23 20 17 16 15 14 18 19 18 20 21 22 27 31 31 28 29 28 27 28 28 28 28 29 31 34 35 38 42 46 48 54 53 57 61 57 38
46 43 39 36 37 36 36 30 34 33 31 29 26 24 21 20 18 17 19 22 23 23 23 24 26 29 28 28 29 28 28 28 28 28 29 29 30 33 35 38 41 45 48 50 52 56 56 39 26
44 43 42 40 41 42 39 33 37 37 35 35 31 28 26 24 20 23 24 27 27 27 26 25 27 29 28 28 29 28 28 28 28 28 28 29 30 32 35 37 41 43 46 48 50 51 48 35 21
48 47 47 45 45 45 43 38 37 40 38 37 34 31 29 25 30 29 31 31 31 30 27 27 28 29 29 29 29 28 28 28 28 28 28 28 29 32 34 35 40 41 44 45 46 41 38 37 26
50 50 49 48 49 48 48 42 39 43 39 39 37 35 34 31 32 33 35 33 31 30 28 29 29 29 30 30 29 28 27 27 27 27 27 27 29 31 32 34 38 39 41 41 41 29 35 35 33
49 50 48 48 50 49 48 48 42 43 42 39 37 37 37 36 35 36 34 33 32 30 30 29 29 28 30 30 29 28 27 26 26 25 26 26 28 29 31 32 36 37 39 36 36 21 30 34 28
51 49 48 50 51 53 50 51 45 45 46 43 40 39 37 36 36 35 35 34 32 32 31 30 30 29 30 29 29 28 27 27 25 25 25 25 28 28 29 30 33 34 36 31 31 15 24 29 25
52 50 51 51 52 54 53 55 47 47 46 44 40 38 36 36 35 35 34 32 32 32 31 30 29 30 31 30 28 27 28 27 25 24 25 26 27 27 28 28 31 31 33 29 25 16 16 23 20
55 54 54 54 55 57 54 54 55 46 42 43 41 38 36 35 35 34 33 33 32 32 31 30 30 30 30 31 29 26 27 25 24 24 24 26 27 26 27 27 28 28 29 28 20 18 10 18 18
56 55 56 57 58 59 58 55 51 44 42 41 41 41 38 35 34 34 34 33 32 31 30 31 30 30 30 30 28 27 27 25 24 23 24 25 26 25 23 24 25 25 24 26 21 12 13 10 15
55 54 53 55 57 57 58 55 50 48 42 39 39 40 39 37 35 34 33 33 32 30 30 31 31 30 29 29 26 28 26 25 24 23 24 24 25 25 23 23 22 21 20 24 23 14 8 8 8
58 56 53 53 55 58 59 57 52 49 46 41 40 41 40 38 36 33 32 33 31 30 31 31 31 30 29 27 27 27 27 27 24 24 23 24 24 24 22 20 21 18 17 19 20 16 8 5 5
61 58 55 56 56 56 56 57 55 50 47 40 36 36 37 36 34 33 34 32 31 32 31 32 31 30 29 27 28 29 29 28 24 23 23 24 24 24 21 19 19 18 15 16 17 15 10 2 4
64 72 69 60 58 57 55 53 47 43 40 34 33 33 33 35 34 33 33 32 33 33 32 32 31 31 28 28 31 31 30 29 26 23 23 24 25 25 21 19 18 18 16 15 13 13 9 4 7
49 53 63 61 60 58 55 52 45 42 38 33 32 31 31 32 33 34 34 34 34 33 32 31 31 29 28 32 33 32 31 29 28 26 25 23 25 24 21 19 17 16 16 15 14 10 9 3 4
Wind_Direction
169 151 137 120 100 78 72 58 52 51 39 22 10 2 9 6 3 8 344 336 337 340 336 338 332 327 325 319 316 311 312 312 312 309 309 311 312 312 313 312 309 308 306 304 302 300 298 296 295
185 179 168 168 145 67 57 47 24 31 33 10 344 338 341 353 357 351 346 348 350 349 342 342 335 327 320 314 314 310 311 312 308 308 309 308 311 310 311 310 310 308 307 305 305 305 304 301 300
202 200 203 209 237 358 355 331 333 352 348 340 337 331 333 349 355 351 349 349 353 349 348 347 338 329 324 322 318 317 317 314 312 310 307 306 306 308 310 310 308 309 310 311 310 309 308 306 306
215 208 209 215 229 251 267 293 296 303 312 324 333 330 345 1 358 354 347 348 347 349 348 346 341 334 331 326 323 322 317 312 309 308 306 309 308 310 311 310 312 315 314 312 310 308 306 303 302
223 221 212 217 229 246 260 270 277 283 289 302 323 299 360 32 26 11 3 355 354 354 352 347 342 340 334 333 328 322 319 315 313 314 313 314 313 313 312 315 316 315 315 315 310 307 301 301 299
227 222 215 217 228 234 239 251 263 254 234 236 127 118 67 57 45 39 29 18 9 358 352 349 346 344 339 336 331 327 322 319 320 317 316 315 312 313 314 316 317 318 318 321 321 315 311 304 296
228 222 216 218 223 231 228 234 235 221 192 189 168 137 91 65 58 52 42 32 23 12 2 355 352 345 340 338 336 331 325 326 322 322 317 314 312 313 313 317 320 321 324 321 318 315 316 313 303
230 222 219 218 222 228 215 215 210 204 190 177 168 154 95 66 57 54 48 42 35 24 12 3 355 348 342 343 340 334 330 330 325 319 315 312 310 311 313 318 322 321 320 317 316 318 317 316 304
232 224 224 220 226 221 215 210 205 201 193 191 191 170 94 58 49 43 42 42 38 31 24 14 4 356 350 347 340 337 334 330 322 316 313 310 310 312 313 316 318 315 315 317 318 318 319 314 305
231 225 227 222 224 217 214 211 208 201 201 200 199 203 155 36 36 36 32 34 32 26 23 18 11 3 354 346 339 339 336 330 320 315 313 312 313 315 315 316 318 316 317 316 316 317 318 312 303
230 227 230 228 225 220 217 214 208 207 207 208 209 217 221 346 8 21 16 18 17 12 12 11 9 6 358 348 340 340 335 330 321 315 314 317 317 318 319 318 320 319 319 318 316 317 317 311 304
232 229 232 232 229 224 219 220 214 212 210 213 213 220 234 269 311 358 4 357 355 359 0 3 4 3 359 352 344 339 334 329 322 319 317 320 320 321 321 322 321 321 319 317 319 319 318 312 306
232 233 230 230 234 227 222 221 219 221 211 215 218 228 240 261 297 330 345 341 343 350 354 357 359 359 356 352 347 339 333 328 324 321 319 321 323 322 323 323 324 323 321 321 324 322 319 315 308
235 235 237 228 231 231 227 224 220 228 215 222 228 238 252 268 301 315 323 327 333 340 344 352 352 349 348 348 344 340 333 329 325 323 321 324 324 324 326 326 328 326 327 328 328 326 325 318 314
236 237 235 237 230 230 232 230 222 227 217 225 232 247 257 269 290 310 311 314 320 325 333 342 338 338 341 341 341 338 334 329 325 323 323 326 327 328 329 331 331 330 333 332 333 332 328 324 325
237 236 238 236 237 231 232 225 232 229 226 231 236 247 258 268 281 293 302 306 308 314 320 326 329 332 334 336 337 337 334 329 326 323 324 328 331 333 333 334 335 335 339 339 338 339 333 337 338
237 238 240 240 240 238 235 223 235 231 232 233 240 245 254 265 276 286 295 301 300 302 308 316 321 327 328 331 334 335 334 329 325 325 328 332 334 336 337 338 338 340 344 343 347 343 345 356 8
243 241 240 240 240 241 237 230 234 238 234 237 239 242 249 260 267 284 289 292 293 294 301 311 316 321 324 327 330 332 334 329 326 327 332 334 338 338 339 340 340 347 350 349 356 351 358 13 21
239 238 237 239 239 240 240 236 236 239 239 237 238 240 247 256 272 276 277 282 286 288 297 306 312 316 320 324 327 329 333 328 326 329 334 337 339 340 341 343 344 353 355 358 2 6 24 31 43
241 239 238 238 240 238 239 238 236 242 239 242 241 240 244 255 263 266 274 273 278 285 294 301 306 311 316 319 323 326 330 326 325 331 336 338 341 342 343 346 347 358 359 6 10 37 38 38 51
240 240 239 240 241 242 241 239 236 241 245 241 244 247 250 256 258 260 265 272 278 283 290 297 301 307 310 314 317 320 325 324 323 330 335 338 342 343 347 349 352 2 4 13 17 47 38 34 46
236 239 238 238 239 241 241 240 236 238 243 243 242 246 250 253 256 260 264 269 275 280 287 293 297 302 305 309 311 315 322 320 322 329 334 339 343 345 348 351 355 4 8 19 25 60 39 39 50
237 236 237 238 239 239 240 244 232 237 242 248 248 249 251 255 258 260 263 268 272 278 284 289 293 296 301 303 306 312 318 317 320 326 331 339 343 344 346 352 357 5 12 18 30 56 36 42 55
238 236 236 237 238 239 239 242 241 235 240 244 250 252 253 254 258 261 265 268 272 277 281 285 288 292 296 299 302 306 313 313 316 322 328 336 343 342 345 353 357 5 15 20 30 47 64 51 58
239 239 238 237 238 241 240 240 246 242 241 245 250 254 255 256 258 262 265 267 270 273 277 281 284 288 293 295 299 304 308 308 313 318 324 331 339 340 343 352 356 3 18 22 29 43 68 78 63
241 242 242 244 245 246 248 244 243 248 245 245 249 253 257 258 259 260 263 265 266 270 273 276 280 285 287 291 292 303 302 304 310 313 319 328 333 338 339 347 354 360 19 26 22 38 58 88 106
237 239 242 243 244 245 246 246 245 246 250 247 249 253 257 258 258 258 260 261 264 266 269 274 276 279 282 284 291 297 297 298 306 309 314 322 326 334 334 341 347 355 1 17 23 32 48 68 129
237 233 237 240 243 244 244 244 246 246 252 253 251 249 251 254 254 254 255 258 262 264 267 270 274 277 279 279 288 293 293 294 303 305 308 316 319 325 327 334 338 343 345 2 19 25 43 91 109
239 240 234 233 239 242 244 244 244 247 249 250 250 248 246 246 247 249 251 255 259 262 265 269 273 274 275 279 286 291 288 288 295 300 302 310 312 316 321 325 329 331 335 342 3 19 31 81 197
246 243 238 233 235 241 245 242 243 245 246 242 241 243 244 244 245 248 251 254 257 259 263 268 269 268 273 280 285 286 283 284 290 294 297 304 304 307 311 319 318 321 324 324 338 359 3 35 172
Height
5835 5836 5836 5838 5842 5841 5841 5843 5842 5843 5843 5843 5843 5843 5843 5842 5842 5843 5840 5839 5838 5837 5836 5835 5834 5833 5832 5831 5829 5827 5826 5825 5824 5821 5820 5818 5816 5814 5812 5809 5807 5806 5805 5804 5803 5802 5801 5800 5799
5834 5836 5837 5838 5840 5840 5842 5842 5842 5842 5843 5843 5843 5842 5842 5842 5841 5840 5838 5838 5837 5837 5835 5834 5832 5830 5829 5827 5826 5825 5824 5823 5820 5819 5817 5814 5812 5810 5808 5806 5804 5802 5800 5799 5798 5797 5796 5795 5794
5833 5835 5837 5838 5839 5840 5841 5841 5841 5842 5842 5843 5842 5842 5841 5840 5839 5838 5837 5837 5836 5835 5834 5832 5830 5829 5828 5828 5827 5825 5824 5822 5819 5816 5814 5812 5809 5808 5807 5805 5803 5801 5799 5798 5795 5793 5791 5789 5787
5832 5834 5837 5837 5838 5839 5840 5840 5841 5842 5842 5842 5842 5842 5841 5840 5839 5838 5837 5836 5835 5833 5832 5831 5829 5828 5827 5826 5825 5823 5820 5818 5815 5812 5811 5809 5807 5806 5804 5802 5800 5798 5796 5794 5791 5789 5786 5785 5783
5831 5833 5835 5836 5836 5838 5839 5839 5840 5840 5841 5841 5842 5842 5841 5840 5838 5837 5836 5835 5833 5833 5831 5830 5829 5827 5825 5824 5822 5819 5817 5815 5812 5810 5808 5807 5805 5803 5801 5799 5798 5795 5792 5790 5787 5784 5782 5779 5776
5829 5831 5833 5834 5835 5836 5838 5838 5839 5840 5840 5840 5841 5841 5841 5840 5839 5837 5836 5835 5833 5832 5831 5829 5827 5825 5823 5821 5819 5817 5815 5812 5810 5808 5806 5804 5801 5799 5797 5795 5794 5791 5788 5785 5782 5779 5775 5772 5768
5827 5829 5831 5833 5834 5835 5836 5837 5838 5838 5839 5840 5840 5841 5841 5840 5839 5837 5836 5835 5833 5832 5830 5828 5826 5824 5822 5820 5818 5815 5812 5810 5807 5806 5803 5801 5798 5796 5793 5791 5789 5786 5782 5778 5775 5771 5767 5763 5758
5824 5827 5829 5830 5831 5833 5835 5836 5837 5838 5839 5839 5840 5840 5840 5839 5838 5837 5836 5834 5833 5832 5830 5827 5825 5823 5820 5818 5816 5813 5811 5808 5806 5803 5801 5798 5795 5792 5789 5786 5783 5780 5776 5771 5767 5762 5757 5752 5746
5822 5825 5827 5827 5829 5831 5833 5834 5835 5836 5837 5838 5839 5839 5839 5838 5837 5837 5836 5834 5833 5831 5829 5827 5825 5822 5819 5816 5813 5810 5808 5806 5803 5800 5797 5794 5791 5788 5785 5782 5779 5775 5770 5765 5759 5753 5747 5740 5734
5818 5822 5822 5824 5825 5827 5830 5832 5834 5835 5835 5836 5837 5837 5837 5836 5836 5835 5834 5833 5831 5830 5828 5826 5823 5821 5818 5814 5811 5808 5806 5803 5800 5796 5793 5791 5788 5785 5782 5778 5775 5770 5765 5758 5751 5744 5736 5728 5720
5815 5818 5818 5820 5822 5824 5826 5829 5831 5832 5833 5834 5835 5835 5835 5834 5834 5834 5834 5832 5830 5829 5826 5824 5821 5819 5816 5813 5810 5807 5804 5801 5797 5794 5791 5788 5785 5781 5777 5774 5769 5764 5757 5749 5741 5733 5724 5715 5706
5810 5812 5813 5817 5819 5821 5824 5826 5828 5830 5831 5832 5833 5833 5833 5833 5833 5832 5832 5831 5830 5828 5825 5823 5820 5818 5815 5812 5809 5806 5802 5799 5795 5792 5789 5785 5781 5778 5773 5769 5764 5757 5749 5740 5731 5722 5711 5700 5689
5805 5807 5808 5812 5815 5817 5819 5822 5824 5826 5828 5829 5830 5831 5831 5832 5831 5831 5830 5829 5828 5826 5824 5822 5819 5817 5814 5810 5807 5803 5800 5796 5792 5789 5785 5782 5778 5774 5769 5764 5758 5751 5742 5732 5722 5710 5699 5684 5672
5800 5801 5804 5806 5809 5812 5815 5817 5821 5820 5824 5826 5827 5828 5829 5829 5829 5828 5827 5827 5826 5824 5822 5820 5817 5814 5811 5807 5804 5801 5797 5792 5788 5785 5782 5778 5774 5770 5765 5760 5753 5745 5735 5725 5713 5700 5685 5668 5655
5793 5796 5798 5802 5804 5807 5809 5814 5816 5816 5819 5821 5823 5824 5825 5826 5825 5825 5825 5824 5823 5821 5819 5817 5815 5812 5809 5805 5801 5797 5793 5789 5785 5782 5779 5775 5771 5767 5761 5755 5748 5740 5730 5719 5706 5691 5672 5654 5640
5785 5789 5792 5797 5799 5801 5803 5811 5808 5812 5814 5816 5818 5819 5821 5822 5822 5822 5822 5821 5820 5818 5816 5814 5811 5809 5806 5802 5798 5795 5790 5786 5783 5779 5775 5772 5768 5763 5757 5751 5743 5735 5725 5713 5700 5683 5663 5644 5629
5776 5781 5787 5790 5792 5794 5796 5804 5803 5806 5809 5811 5813 5814 5815 5817 5818 5817 5818 5818 5817 5814 5813 5810 5808 5806 5803 5799 5796 5792 5788 5784 5780 5776 5773 5769 5765 5760 5754 5747 5740 5731 5722 5709 5695 5679 5660 5642 5633
5772 5775 5779 5782 5785 5785 5789 5796 5797 5799 5802 5805 5807 5809 5810 5812 5813 5813 5813 5813 5812 5810 5809 5807 5805 5802 5799 5796 5792 5789 5785 5781 5777 5774 5770 5766 5762 5756 5751 5745 5737 5728 5719 5708 5693 5678 5662 5647 5639
5759 5763 5768 5772 5775 5777 5781 5788 5790 5792 5796 5798 5801 5804 5806 5807 5808 5809 5808 5808 5808 5806 5804 5802 5800 5798 5795 5792 5789 5786 5782 5778 5774 5771 5767 5763 5759 5754 5749 5743 5735 5727 5717 5706 5695 5682 5669 5658 5649
5750 5753 5758 5762 5764 5768 5772 5779 5782 5783 5789 5792 5794 5797 5798 5800 5801 5802 5802 5803 5803 5801 5799 5797 5796 5794 5791 5789 5786 5783 5779 5775 5772 5769 5765 5761 5756 5752 5747 5741 5734 5726 5717 5708 5698 5688 5680 5671 5662
5739 5744 5749 5753 5756 5759 5764 5769 5774 5776 5779 5784 5787 5789 5791 5793 5794 5795 5795 5796 5796 5795 5794 5793 5791 5789 5787 5784 5782 5779 5776 5772 5769 5765 5762 5758 5754 5749 5745 5740 5733 5726 5718 5710 5702 5695 5689 5682 5676
5727 5734 5737 5740 5744 5749 5753 5756 5765 5768 5770 5774 5778 5781 5783 5785 5787 5788 5789 5790 5790 5789 5789 5788 5787 5785 5783 5780 5778 5775 5772 5769 5765 5763 5759 5756 5752 5748 5743 5739 5732 5727 5720 5712 5707 5701 5697 5692 5687
5718 5722 5726 5729 5732 5737 5744 5744 5757 5759 5763 5767 5770 5773 5776 5778 5780 5781 5783 5784 5784 5783 5783 5783 5782 5780 5778 5775 5773 5771 5768 5765 5762 5760 5757 5753 5750 5746 5742 5738 5733 5728 5723 5716 5711 5706 5704 5700 5697
5706 5710 5713 5717 5720 5724 5733 5735 5742 5753 5757 5758 5761 5766 5768 5771 5772 5774 5775 5776 5777 5776 5777 5776 5775 5774 5773 5771 5768 5766 5764 5761 5759 5756 5754 5751 5748 5744 5741 5737 5733 5728 5723 5718 5714 5712 5709 5707 5705
5696 5700 5702 5704 5708 5715 5719 5726 5736 5745 5750 5752 5754 5756 5759 5762 5764 5766 5768 5768 5769 5769 5770 5770 5769 5768 5767 5765 5764 5762 5760 5758 5755 5752 5751 5748 5746 5742 5739 5736 5732 5729 5724 5720 5715 5714 5711 5710 5710
5687 5690 5695 5696 5701 5709 5709 5718 5729 5732 5740 5744 5745 5747 5750 5753 5755 5758 5759 5760 5761 5762 5762 5762 5762 5762 5760 5759 5758 5757 5755 5754 5751 5749 5748 5745 5744 5741 5737 5734 5731 5729 5725 5721 5718 5715 5715 5712 5711
5673 5676 5686 5686 5689 5693 5698 5709 5719 5723 5726 5733 5737 5739 5742 5744 5746 5749 5751 5751 5753 5755 5755 5755 5755 5755 5754 5753 5752 5751 5750 5748 5747 5746 5744 5742 5741 5739 5735 5732 5729 5728 5725 5722 5718 5716 5714 5715 5713
5657 5669 5671 5674 5678 5681 5688 5696 5707 5715 5717 5722 5726 5730 5732 5735 5738 5740 5742 5743 5746 5747 5747 5748 5748 5748 5747 5747 5746 5745 5744 5743 5743 5741 5740 5739 5738 5736 5733 5730 5727 5726 5723 5721 5718 5716 5714 5714 5714
5647 5648 5655 5663 5666 5671 5678 5686 5698 5704 5709 5714 5717 5720 5723 5726 5729 5731 5733 5736 5737 5739 5739 5740 5741 5740 5740 5741 5740 5739 5738 5738 5737 5737 5736 5735 5734 5732 5731 5728 5726 5724 5722 5720 5718 5715 5713 5712 5714
5632 5638 5643 5648 5659 5663 5669 5679 5690 5696 5700 5704 5707 5710 5714 5718 5721 5723 5725 5727 5729 5730 5731 5732 5733 5732 5733 5733 5733 5732 5732 5732 5732 5731 5730 5731 5729 5727 5726 5725 5723 5721 5720 5718 5717 5715 5713 5709 5709